Wind_Speed
3 4 8 10 11 12 12 13 11 11 11 13 14 15 15 13 12 7 1 8 11 13 11 8 6 8 11 11 13 9 7 7 7 5 5 4 4 4 4 4 6 5 7 10 12
6 7 9 12 15 18 17 17 16 15 14 14 16 17 15 15 12 8 1 10 13 13 12 9 7 9 9 12 10 8 3 2 4 5 6 6 5 4 4 6 7 8 9 11 12
11 9 10 12 12 14 20 22 19 17 17 14 13 11 12 12 10 6 4 12 13 14 11 10 9 9 10 14 13 5 6 7 8 5 5 5 7 6 7 8 9 10 11 13 14
10 10 9 8 10 12 11 15 20 20 19 13 8 7 7 9 9 7 6 14 17 15 12 11 10 9 8 8 7 7 6 3 5 7 4 3 8 10 7 10 12 16 17 15 16
8 9 6 6 8 8 9 10 12 14 15 10 9 10 8 7 7 6 7 17 18 17 13 11 10 6 4 6 6 4 4 4 7 5 3 5 8 10 12 15 17 18 16 17 14
8 7 6 7 8 6 7 9 10 12 13 12 9 8 8 7 8 9 8 20 18 15 11 11 7 5 3 3 3 4 1 4 2 4 2 4 9 12 14 15 14 15 18 12 12
8 6 7 8 7 6 6 6 8 5 6 9 9 9 7 8 9 11 10 18 17 13 14 11 4 3 3 5 4 9 7 3 6 6 6 7 8 12 13 14 15 17 18 14 14
9 6 8 10 8 7 7 8 5 3 4 6 8 9 5 7 10 12 16 15 17 16 9 10 5 5 6 7 9 12 8 6 8 11 11 8 12 15 15 19 20 20 21 20 23
10 7 8 8 8 8 7 8 3 3 4 5 8 9 6 7 11 13 17 18 17 13 10 8 8 7 8 8 9 9 7 11 9 9 11 13 17 22 26 22 20 21 22 24 23
11 9 7 8 9 9 7 6 4 4 6 6 6 9 10 11 13 16 19 19 19 14 11 9 9 9 10 8 9 11 12 15 16 11 14 15 18 25 26 27 24 25 27 27 26
11 8 7 9 9 10 8 5 3 7 8 7 7 3 8 12 15 17 19 23 16 18 18 15 11 8 12 12 11 14 18 18 17 16 17 22 21 24 24 29 28 26 29 30 30
11 9 9 9 10 10 7 4 4 7 8 9 7 7 8 7 8 14 20 23 23 22 15 19 12 8 13 13 14 16 16 19 22 25 27 27 23 28 26 30 28 30 30 28 28
11 10 10 9 8 6 5 2 4 8 9 9 9 13 14 15 12 14 20 20 22 22 20 19 16 16 10 13 19 22 22 25 29 29 32 30 26 30 32 31 32 33 30 27 27
11 12 11 8 7 5 5 3 4 5 4 6 10 13 14 14 12 16 17 22 22 24 23 21 21 24 12 13 19 27 26 29 32 36 33 32 37 29 34 34 34 32 28 28 29
11 12 11 9 6 4 5 6 7 6 6 6 8 11 12 14 9 15 21 26 22 17 20 22 20 24 14 16 23 27 28 32 36 37 37 34 40 35 35 33 33 30 29 28 29
11 11 9 6 3 5 6 9 9 7 9 8 9 6 13 16 15 15 19 20 16 19 21 21 22 21 20 19 22 27 30 34 37 37 37 37 37 38 38 33 32 31 29 29 29
11 8 7 5 6 7 8 11 10 9 9 8 6 5 6 11 11 14 12 14 17 19 22 21 27 26 25 30 29 27 30 35 39 39 42 37 40 38 35 35 34 34 33 30 30
11 8 9 7 6 7 10 11 13 12 12 10 8 5 9 8 16 17 17 18 20 19 22 23 29 23 26 26 31 31 29 31 39 40 40 34 37 37 37 36 35 32 30 30 29
10 8 10 9 8 8 10 13 14 13 14 12 12 11 12 11 14 20 21 20 22 23 27 28 26 28 29 30 32 32 31 33 37 42 42 41 38 39 36 36 34 31 34 33 28
11 9 10 11 10 11 11 14 16 16 15 14 14 16 16 20 22 23 24 25 25 23 22 23 25 24 23 24 26 29 30 35 37 37 40 41 37 34 35 34 34 32 35 32 30
11 9 9 9 10 11 13 13 13 16 17 15 16 16 20 26 24 28 27 25 24 21 25 26 26 25 25 28 32 34 37 39 38 38 40 34 32 31 30 32 32 35 36 35 34
10 9 8 7 8 9 10 12 12 13 13 14 14 15 18 28 21 17 20 24 22 21 21 24 26 27 30 32 34 35 35 35 29 26 25 29 30 32 32 33 33 38 38 37 36
10 8 6 6 7 8 10 10 11 12 14 15 16 15 18 15 6 13 17 22 20 20 24 26 27 31 35 35 27 23 24 26 26 25 25 29 30 32 33 34 35 37 38 39 40
10 7 6 7 8 10 11 13 12 14 16 16 15 15 14 16 12 11 16 22 23 24 27 28 33 32 26 19 17 19 22 25 29 29 28 27 27 29 32 35 36 37 38 40 42
9 7 7 8 9 10 11 12 13 14 16 18 15 15 13 13 13 12 14 18 22 24 28 24 20 19 21 20 19 21 21 23 21 24 28 29 27 29 34 36 35 36 39 41 44
8 7 8 10 11 12 13 14 17 17 19 21 22 19 16 16 17 16 19 21 25 23 19 21 18 19 21 21 23 22 23 25 25 28 25 24 25 33 33 30 34 38 41 43 45
9 8 9 11 11 13 14 17 19 22 26 27 26 26 23 20 20 21 20 14 14 17 19 20 19 16 17 19 18 19 20 21 24 23 22 22 28 27 29 33 37 39 44 46 48
Wind_Direction
302 242 213 221 229 240 252 261 275 284 288 293 290 295 303 309 322 320 354 133 144 147 146 151 129 125 120 158 143 120 80 66 94 88 85 64 58 66 60 53 31 336 311 304 308
332 293 270 255 238 239 249 260 278 285 287 295 292 292 292 291 301 305 165 145 155 149 152 157 144 129 139 153 173 153 124 159 118 83 48 27 21 23 18 26 14 358 329 312 313
330 314 284 262 263 263 252 252 263 278 278 290 292 284 277 276 279 280 172 150 159 155 153 139 114 137 125 145 155 151 143 149 144 98 43 11 6 352 352 354 11 357 338 326 323
335 330 315 300 270 263 272 255 254 265 274 272 263 273 285 262 265 263 172 163 166 166 167 147 134 121 133 151 124 128 152 171 178 229 293 32 28 17 1 345 333 335 332 321 327
339 342 335 334 317 282 270 264 263 259 264 248 246 259 294 275 260 249 187 170 169 177 164 156 153 139 147 147 147 130 112 94 116 121 139 11 8 1 352 350 346 337 334 326 329
338 344 330 327 341 309 276 271 267 269 257 234 237 258 286 270 248 232 196 173 190 189 172 162 160 187 214 269 255 251 226 70 71 116 91 359 357 352 341 341 344 342 340 312 308
340 332 331 326 330 340 341 307 286 270 239 219 238 252 281 263 235 232 213 188 187 173 178 165 164 177 243 283 267 276 281 338 11 339 345 331 340 351 343 351 345 339 334 306 300
340 334 332 326 320 322 327 326 269 228 238 231 238 239 272 255 237 229 192 200 197 195 199 204 211 224 247 268 282 295 298 304 318 328 324 337 335 342 344 338 335 332 315 312 298
337 334 333 332 328 314 322 334 255 228 238 248 255 249 257 242 229 231 226 218 217 210 223 192 195 213 256 277 271 286 308 309 306 329 335 332 336 340 344 334 331 327 325 318 300
332 330 339 340 339 329 329 329 218 197 214 226 261 247 237 226 220 229 229 232 223 214 201 193 179 230 266 277 304 300 305 308 320 313 323 325 344 344 341 338 328 321 321 316 309
326 322 319 342 338 336 333 332 230 203 220 234 243 225 246 231 217 232 233 242 239 246 220 199 192 242 265 268 287 317 311 310 318 312 310 321 332 338 332 331 322 322 321 314 311
320 319 318 315 339 339 331 323 221 230 229 242 249 217 235 238 246 248 235 240 240 247 242 227 200 253 260 273 281 291 303 308 310 307 312 317 329 335 326 326 322 324 316 310 311
310 314 316 310 320 333 306 275 223 233 242 247 261 233 238 240 265 253 236 241 239 239 241 230 210 243 266 280 282 280 293 298 302 304 310 311 318 330 328 327 316 314 312 309 307
302 310 314 310 304 286 278 220 223 240 275 272 268 256 249 244 238 233 239 240 241 234 241 243 213 249 252 269 277 278 287 293 300 306 309 312 316 328 326 319 314 312 309 305 301
295 309 310 307 286 256 277 231 233 249 290 286 278 264 244 219 206 226 243 244 250 228 233 240 223 250 255 265 274 285 290 294 296 300 306 314 312 326 324 317 310 309 306 303 300
292 306 306 321 286 274 253 246 234 243 260 277 295 258 242 226 213 223 227 227 228 242 239 242 227 245 266 267 282 289 291 290 293 300 306 315 315 325 317 315 311 310 308 304 302
284 295 283 316 285 279 262 246 238 246 267 281 319 307 236 231 222 212 228 237 242 234 232 240 231 246 257 266 278 289 299 300 302 304 312 309 317 321 319 316 312 311 312 310 306
276 280 267 290 306 296 271 252 248 256 261 274 284 281 242 243 225 227 239 241 246 229 242 248 242 248 259 269 274 284 295 301 301 302 308 307 314 321 318 312 309 311 313 311 303
269 274 270 280 295 305 285 255 252 256 263 263 269 266 250 248 264 248 241 236 234 241 247 251 254 262 264 272 274 281 287 298 303 303 304 305 313 316 316 310 310 315 318 313 305
261 266 280 281 287 294 293 277 257 255 260 266 264 259 266 276 273 261 255 237 235 244 252 262 267 266 279 279 277 287 291 301 304 311 306 304 312 314 310 311 317 315 321 314 300
257 262 286 293 297 299 302 298 295 284 271 271 278 273 283 293 283 281 248 241 244 254 256 265 270 272 278 282 288 294 296 298 302 302 301 307 313 310 306 308 311 313 323 324 314
258 262 289 300 308 316 316 311 315 303 303 303 288 291 300 300 286 255 241 229 238 253 261 264 271 275 281 287 295 294 295 298 303 307 307 302 308 305 310 309 309 316 319 318 315
255 258 281 291 305 309 308 306 302 294 292 299 302 299 295 321 299 259 261 241 243 248 251 263 275 282 290 290 298 303 301 299 304 305 309 307 306 305 306 317 318 318 319 318 316
248 248 266 286 292 297 303 301 292 290 291 294 295 292 293 299 272 280 256 230 242 253 263 273 282 278 289 288 289 294 295 297 297 297 304 301 301 306 316 318 320 320 320 319 319
243 250 270 286 293 299 298 288 283 279 286 287 284 277 276 280 278 265 267 247 248 256 269 279 279 282 286 291 294 297 292 297 301 300 302 305 308 313 321 323 325 324 323 322 321
238 248 270 288 299 304 299 294 287 284 287 288 290 281 266 268 273 264 285 267 257 256 263 269 282 292 294 296 297 296 294 292 292 306 309 311 311 322 325 327 327 328 326 323 322
249 255 272 287 296 295 295 295 294 294 293 290 285 283 278 267 257 259 265 292 233 242 260 270 280 286 301 304 302 299 307 301 304 314 318 314 319 323 329 330 331 327 328 327 326
Height
5890 5891 5891 5891 5892 5892 5892 5892 5892 5893 5893 5893 5893 5893 5893 5893 5893 5894 5896 5898 5899 5899 5900 5901 5903 5904 5904 5906 5906 5906 5907 5907 5907 5906 5906 5905 5903 5902 5901 5900 5898 5898 5897 5897 5896
5890 5890 5889 5889 5889 5889 5890 5890 5891 5891 5892 5892 5892 5892 5892 5892 5893 5894 5896 5897 5898 5900 5900 5902 5904 5905 5905 5906 5907 5906 5906 5906 5906 5906 5906 5905 5904 5902 5901 5898 5897 5896 5896 5896 5893
5889 5887 5887 5886 5886 5886 5887 5888 5888 5889 5890 5890 5890 5890 5890 5890 5891 5893 5896 5897 5898 5900 5900 5902 5904 5906 5906 5905 5905 5905 5904 5903 5904 5904 5903 5903 5902 5901 5900 5898 5897 5896 5895 5893 5891
5887 5886 5885 5884 5883 5884 5884 5885 5886 5887 5887 5888 5888 5888 5888 5889 5891 5891 5895 5896 5897 5899 5900 5901 5904 5905 5905 5905 5905 5903 5902 5902 5902 5902 5902 5901 5899 5899 5898 5896 5894 5893 5891 5889 5887
5886 5885 5884 5883 5882 5882 5882 5882 5883 5883 5884 5885 5886 5887 5887 5888 5888 5890 5894 5896 5896 5897 5899 5901 5903 5904 5904 5904 5904 5904 5903 5901 5900 5900 5900 5900 5898 5896 5895 5893 5892 5891 5889 5887 5884
5885 5884 5883 5883 5881 5880 5880 5880 5881 5881 5881 5883 5884 5885 5886 5887 5887 5888 5893 5895 5895 5897 5899 5901 5902 5903 5903 5903 5903 5903 5901 5900 5900 5899 5899 5898 5896 5894 5893 5892 5891 5888 5886 5883 5882
5884 5883 5883 5882 5880 5879 5879 5879 5879 5879 5879 5881 5883 5884 5884 5886 5886 5887 5891 5893 5894 5897 5898 5900 5901 5902 5902 5902 5901 5901 5902 5901 5900 5899 5898 5898 5896 5893 5891 5888 5886 5884 5882 5880 5879
5883 5882 5881 5881 5880 5879 5878 5877 5877 5878 5879 5880 5881 5882 5883 5884 5884 5886 5890 5892 5893 5896 5898 5900 5901 5901 5901 5900 5900 5900 5901 5901 5900 5899 5897 5896 5894 5892 5890 5886 5883 5881 5879 5877 5873
5881 5881 5880 5879 5878 5878 5877 5877 5876 5878 5879 5880 5881 5881 5882 5883 5884 5885 5888 5891 5892 5895 5897 5898 5900 5900 5900 5900 5900 5899 5899 5898 5898 5897 5896 5894 5892 5889 5885 5883 5879 5877 5874 5871 5869
5880 5880 5879 5878 5878 5877 5877 5876 5876 5877 5877 5878 5879 5880 5880 5881 5882 5883 5885 5888 5891 5894 5896 5897 5898 5898 5898 5898 5898 5897 5896 5895 5894 5894 5892 5891 5889 5886 5882 5879 5876 5872 5869 5866 5863
5879 5878 5878 5878 5877 5876 5876 5875 5876 5877 5876 5877 5877 5878 5879 5879 5881 5882 5884 5886 5889 5891 5894 5895 5897 5897 5897 5896 5895 5894 5893 5892 5891 5891 5890 5887 5886 5883 5879 5876 5871 5867 5863 5859 5856
5878 5877 5877 5877 5876 5875 5874 5873 5874 5875 5875 5875 5876 5876 5877 5879 5880 5881 5882 5884 5887 5889 5890 5893 5895 5893 5894 5894 5893 5891 5890 5889 5888 5886 5885 5883 5882 5879 5875 5871 5866 5862 5858 5854 5850
5876 5876 5875 5875 5874 5873 5872 5872 5872 5873 5874 5874 5874 5874 5875 5877 5878 5879 5881 5882 5884 5885 5887 5889 5893 5890 5891 5891 5889 5889 5887 5886 5885 5882 5880 5876 5877 5874 5869 5865 5861 5856 5852 5848 5845
5874 5874 5873 5873 5873 5871 5871 5871 5871 5871 5873 5874 5873 5873 5873 5874 5875 5876 5878 5880 5881 5883 5884 5885 5889 5886 5887 5888 5885 5885 5884 5882 5880 5877 5875 5873 5867 5870 5864 5859 5854 5849 5846 5842 5839
5872 5872 5871 5870 5870 5870 5870 5869 5869 5870 5871 5872 5870 5870 5870 5872 5874 5874 5874 5875 5878 5880 5882 5883 5884 5882 5884 5885 5883 5882 5881 5879 5875 5873 5870 5868 5862 5864 5859 5854 5849 5844 5840 5836 5831
5870 5869 5869 5868 5868 5868 5868 5867 5868 5870 5868 5868 5868 5868 5868 5868 5869 5870 5870 5872 5875 5876 5877 5879 5880 5880 5879 5880 5880 5878 5877 5873 5871 5869 5865 5864 5859 5858 5851 5847 5842 5838 5834 5829 5824
5867 5867 5867 5866 5866 5866 5866 5865 5867 5866 5867 5868 5867 5866 5867 5867 5868 5868 5869 5870 5872 5873 5874 5875 5877 5876 5877 5877 5876 5875 5873 5869 5866 5863 5861 5857 5853 5852 5845 5839 5835 5831 5827 5823 5819
5864 5865 5864 5864 5864 5864 5864 5864 5863 5863 5864 5865 5865 5865 5865 5866 5867 5867 5867 5868 5869 5871 5872 5872 5874 5875 5875 5874 5872 5871 5869 5866 5858 5857 5856 5852 5849 5845 5839 5834 5829 5825 5821 5816 5812
5862 5862 5861 5862 5861 5862 5862 5861 5861 5861 5862 5862 5862 5862 5863 5864 5865 5865 5864 5865 5866 5868 5869 5868 5870 5871 5870 5868 5868 5865 5863 5860 5854 5851 5847 5845 5843 5839 5832 5827 5822 5818 5814 5809 5805
5859 5859 5859 5859 5859 5859 5859 5859 5858 5858 5858 5859 5860 5860 5861 5861 5860 5859 5859 5860 5861 5864 5865 5865 5865 5866 5864 5863 5860 5859 5857 5854 5850 5844 5840 5838 5836 5830 5825 5820 5816 5812 5808 5802 5799
5856 5857 5857 5856 5856 5857 5857 5856 5856 5856 5857 5857 5857 5857 5857 5855 5852 5851 5852 5856 5857 5858 5860 5860 5860 5861 5859 5857 5855 5854 5851 5847 5844 5841 5836 5831 5831 5824 5819 5815 5811 5806 5801 5796 5792
5853 5854 5853 5854 5855 5854 5854 5854 5855 5855 5855 5855 5855 5854 5853 5847 5844 5844 5846 5849 5852 5853 5854 5855 5854 5855 5854 5851 5849 5846 5843 5840 5836 5834 5831 5827 5825 5817 5814 5810 5805 5800 5795 5791 5785
5850 5851 5851 5851 5852 5852 5851 5851 5852 5852 5852 5852 5852 5851 5848 5845 5843 5843 5843 5845 5847 5848 5849 5849 5848 5847 5846 5844 5842 5839 5836 5834 5831 5828 5826 5822 5819 5812 5809 5804 5800 5796 5790 5784 5778
5847 5848 5848 5849 5849 5849 5848 5848 5847 5847 5847 5847 5847 5847 5845 5843 5841 5841 5840 5839 5842 5843 5844 5844 5842 5841 5840 5838 5837 5835 5832 5829 5826 5823 5820 5817 5813 5809 5805 5800 5796 5789 5783 5776 5769
5844 5844 5845 5846 5846 5846 5845 5844 5844 5843 5843 5842 5842 5842 5841 5840 5839 5838 5837 5837 5838 5839 5839 5838 5836 5835 5834 5832 5830 5829 5826 5824 5821 5818 5815 5811 5807 5804 5799 5793 5787 5781 5775 5768 5760
5840 5841 5842 5843 5842 5842 5841 5840 5839 5838 5838 5837 5836 5836 5836 5835 5834 5834 5833 5834 5833 5834 5835 5833 5832 5830 5828 5826 5825 5823 5821 5819 5816 5813 5809 5806 5802 5798 5793 5787 5782 5775 5768 5761 5753
5837 5838 5839 5839 5838 5838 5837 5836 5835 5833 5831 5829 5829 5829 5828 5829 5828 5828 5827 5827 5828 5829 5829 5828 5828 5827 5823 5821 5820 5818 5815 5813 5810 5807 5805 5802 5799 5794 5788 5782 5777 5769 5761 5751 5741